This demonstration page uses our WeatherBlox Daily Observations layout. Learn more.

Left ArrowRight Arrow

Hourly Observations for March 1, 2021

Temp ( °F °C ) Dew Point ( °F °C ) Humidity (%) Winds ( mph kmh ) Pressure ( in mb ) Visibility ( mi km ) Precip ( " mm )
12:53 am 00:53 Clear 68 20 60 15.6 76 76 SW 8 13 29.93 1013 10 16 0.00 0.00
1:53 am 01:53 Mostly Cloudy 67 19.4 61 16.1 81 81 SW 12 19 29.92 1013 10 16 0.00 0.00
2:53 am 02:53 Cloudy 68 20 62 16.7 81 81 SSW 13 20 29.90 1013 10 16 0.00 0.00
3:53 am 03:53 Cloudy 68 20 62 16.7 81 81 SSW 12 19 29.88 1012 10 16 0.00 0.00
4:53 am 04:53 Cloudy 69 20.6 62 16.7 78 78 SW 9 15 29.88 1012 10 16 0.00 0.00
5:51 am 05:51 Cloudy with Heavy Rain 59 15 55 13 88 88 N 16 26 29.96 1015 2 3 0.18 4.57
5:53 am 05:53 Cloudy with Rain 59 15 55 12.8 87 87 NNW 12 19 29.96 1014 3 5 0.18 4.57
6:06 am 06:06 Cloudy with Light Rain 59 15 56 13.3 90 90 NNW 8 13 29.98 1015 10 16 0.01 0.25
6:53 am 06:53 Cloudy with Light Rain 58 14.4 55 12.8 90 90 NW 6 9 30.01 1016 6 10 0.02 0.51
7:53 am 07:53 Cloudy with Light Rain 57 13.9 55 12.8 93 93 W 3 6 30.04 1017 10 16 0.01 0.25
8:53 am 08:53 Cloudy 58 14.4 55 12.8 90 90 W 3 6 30.05 1018 10 16 0.00 0.00
9:53 am 09:53 Cloudy 59 15 55 12.8 87 87 W 5 7 30.06 1018 10 16 0.00 0.00
10:53 am 10:53 Cloudy 59 15 55 12.8 87 87 SW 5 7 30.06 1018 10 16 0.00 0.00
11:53 am 11:53 Cloudy 60 15.6 55 12.8 84 84 SW 6 9 30.04 1017 10 16 0.00 0.00
12:53 pm 12:53 Cloudy 61 16.1 55 12.8 81 81 WNW 8 13 30.06 1018 10 16 0.00 0.00
1:53 pm 13:53 Cloudy 61 16.1 54 12.2 78 78 WSW 3 6 30.04 1017 10 16 0.00 0.00
2:53 pm 14:53 Cloudy with Light Rain 62 16.7 53 11.7 73 73 W 6 9 30.06 1018 10 16 0.00 0.00
3:53 pm 15:53 Cloudy 61 16.1 52 11.1 72 72 NW 13 20 30.09 1019 10 16 0.00 0.00
4:53 pm 16:53 Cloudy 57 13.9 49 9.4 74 74 N 7 11 30.10 1019 10 16 0.00 0.00
5:00 pm 17:00 Cloudy 56 13.3 49 9.4 77 77 N 14 22 30.12 1020 10 16 0.00 0.00
5:53 pm 17:53 Cloudy 54 12.2 41 5 62 62 NW 10 17 30.13 1020 10 16 0.00 0.00
6:53 pm 18:53 Cloudy 51 10.6 41 5 69 69 NNW 8 13 30.14 1021 10 16 0.00 0.00
7:53 pm 19:53 Cloudy 50 10 41 5 71 71 NW 6 9 30.17 1022 10 16 0.00 0.00
8:53 pm 20:53 Cloudy 50 10 35 1.7 57 57 VRB 3 6 30.15 1021 10 16 0.00 0.00
9:53 pm 21:53 Cloudy 49 9.4 37 2.8 64 64 NW 9 15 30.18 1022 10 16 0.00 0.00
10:53 pm 22:53 Clear 48 8.9 34 1.1 58 58 NNW 8 13 30.19 1023 10 16 0.00 0.00
11:53 pm 23:53 Clear 47 8.3 33 0.6 59 59 VRB 6 9 30.17 1022 10 16 0.00 0.00

Powered by AerisWeather